Wetbulb
49.68 44.91 41.55 43.30 45.93 44.67 42.51 39.66 37.38 39.78 45.41 44.22 41.99 42.04 44.81 47.68 47.42 46.58 46.85 48.29 50.11 51.64 53.98 53.65 57.33 59.32 61.59 61.66 61.87 62.34 62.35 62.62 62.44 61.77 61.57 61.14 61.00 61.64 61.86 62.59 62.01 61.03 60.12 59.37
45.35 40.92 45.51 46.60 45.66 44.15 43.04 40.69 39.49 41.13 45.79 44.27 42.29 42.25 45.26 46.54 46.62 47.11 47.29 47.19 47.57 49.60 51.27 52.87 53.04 55.99 59.44 60.82 61.10 61.50 61.98 62.87 62.66 62.68 62.59 62.58 62.13 62.00 62.50 62.03 62.31 62.43 60.91 59.95
41.36 41.87 45.88 45.06 43.55 41.66 40.50 40.09 39.16 39.00 42.80 44.54 43.07 40.16 42.58 45.90 46.90 49.23 50.10 50.87 50.95 49.44 49.76 50.06 51.19 52.49 57.41 59.36 60.35 60.78 61.48 62.53 63.07 63.10 62.65 62.22 61.28 60.31 60.22 60.39 61.14 61.66 61.71 60.63
43.59 45.30 44.06 43.07 41.54 41.98 37.54 42.53 41.80 41.00 38.78 34.02 41.97 31.87 38.01 40.97 42.89 45.14 47.53 49.42 50.80 51.69 52.21 52.12 50.61 50.03 51.86 57.70 59.97 60.85 61.34 61.42 63.08 63.21 62.26 61.42 60.96 60.37 61.63 61.85 61.74 61.56 61.00 60.48
40.99 42.13 41.72 40.94 41.69 43.39 39.46 42.79 41.29 41.08 39.02 38.03 36.21 32.54 34.15 39.87 38.80 42.85 44.78 46.59 49.07 51.11 52.27 51.92 50.89 51.59 50.83 54.26 56.11 59.58 60.81 61.18 62.07 62.74 62.96 61.81 61.10 61.77 62.14 62.11 61.21 61.10 61.58 61.09
41.54 46.40 44.76 43.53 45.13 45.01 45.21 42.25 41.73 41.83 38.78 31.62 34.90 34.27 33.14 36.10 40.10 40.95 44.23 45.04 46.02 46.26 47.07 48.59 48.91 49.51 49.64 50.07 51.60 54.53 57.04 59.59 61.38 61.39 62.31 62.14 61.55 61.47 60.96 60.32 60.40 60.75 61.11 61.12
38.36 38.81 45.00 45.73 41.76 44.89 43.53 39.37 31.64 30.00 30.36 27.66 35.51 33.79 36.04 39.91 41.96 42.76 44.07 43.99 44.29 44.53 45.00 45.99 46.56 46.57 47.70 48.23 49.37 51.66 54.76 56.31 58.53 60.39 61.29 61.86 62.00 61.90 61.30 60.56 60.18 60.20 60.48 60.72
33.65 31.42 41.15 44.13 41.73 40.19 41.08 38.83 31.03 24.97 26.23 26.62 33.02 30.78 34.92 42.86 44.83 45.23 45.64 44.98 43.75 43.84 44.77 45.27 46.23 46.22 46.44 47.52 47.76 48.18 50.77 52.30 55.81 56.99 59.32 61.22 61.89 62.24 62.05 61.77 61.28 60.85 60.94 61.30
32.34 33.03 42.69 43.71 45.45 43.65 40.08 36.50 38.90 30.12 22.03 24.28 28.93 34.12 39.70 42.90 41.28 42.01 42.86 41.87 41.87 43.04 43.97 44.20 45.08 46.24 46.58 46.41 47.11 47.31 47.50 49.22 51.73 53.49 57.04 58.50 60.37 61.28 61.98 62.09 62.04 61.61 61.54 61.56
36.74 32.55 39.09 43.01 45.09 44.82 42.16 42.91 34.11 34.57 25.17 21.13 26.03 28.48 31.64 37.09 39.31 41.01 41.12 40.89 42.14 41.99 43.03 43.95 45.00 45.46 46.10 46.22 46.27 46.91 47.40 47.17 48.11 50.20 52.82 55.31 57.42 59.98 61.34 62.15 61.65 61.65 61.73 61.24
39.25 36.65 34.91 37.76 39.72 38.19 38.94 38.18 38.78 37.48 32.54 25.38 22.35 26.91 36.52 38.70 40.55 40.27 41.32 42.09 42.69 42.39 42.68 44.37 45.79 45.81 45.95 46.03 46.00 46.01 46.25 46.34 46.66 47.49 49.40 51.98 54.17 56.44 59.11 60.70 61.61 61.71 61.67 61.43
40.38 36.24 29.98 34.55 38.40 39.69 39.99 38.96 38.55 33.02 29.85 30.45 28.36 28.97 39.93 40.47 41.03 41.12 41.20 42.25 41.80 42.41 43.36 46.12 46.31 45.14 44.20 44.26 45.67 45.62 45.69 45.59 46.37 46.96 47.79 49.58 51.95 53.72 55.19 57.86 60.05 61.12 61.15 60.61
39.85 35.26 26.35 30.55 36.66 38.81 33.98 36.16 36.78 38.36 34.07 29.48 25.72 27.40 39.07 41.38 41.59 41.13 41.92 42.34 43.71 44.78 44.30 44.78 44.10 42.46 41.99 43.57 43.99 44.52 45.26 45.07 45.14 45.72 46.94 48.53 50.43 52.41 53.97 55.45 57.12 57.74 59.09 60.04
41.79 35.07 29.58 27.54 31.76 37.46 34.66 35.40 35.73 34.02 31.59 32.46 32.40 33.61 37.43 38.26 39.41 40.17 41.62 42.07 42.47 42.70 43.38 41.96 40.54 40.55 41.43 42.09 42.66 44.22 45.28 45.69 45.39 44.58 45.03 46.54 48.07 50.12 52.65 54.87 55.85 56.87 57.70 58.30
40.55 32.98 32.96 33.35 35.07 35.12 34.21 34.65 37.21 34.44 35.66 31.86 33.99 34.64 38.44 40.33 39.13 39.84 41.54 41.91 40.56 40.23 40.71 40.65 40.64 40.97 41.57 42.53 43.35 44.10 44.88 44.98 44.84 44.94 43.81 44.95 46.36 48.09 49.89 51.46 53.23 53.97 54.06 56.80
40.18 25.58 32.55 26.95 34.83 34.38 32.17 34.18 35.54 36.57 36.76 35.72 35.49 34.65 39.30 39.22 40.38 40.78 41.32 40.82 38.63 39.43 40.14 40.32 40.03 40.21 40.39 40.47 41.55 42.96 43.50 43.61 43.71 43.14 42.63 43.07 42.91 43.48 44.89 46.89 48.27 47.27 48.33 52.05
33.58 28.20 20.35 15.04 28.54 30.33 26.00 31.61 32.80 33.67 35.96 36.65 31.94 37.25 39.62 38.36 39.10 35.23 35.85 37.45 36.99 37.16 37.60 37.79 38.14 38.11 38.45 39.10 40.24 40.01 40.83 41.22 40.55 40.16 40.36 39.53 38.52 38.04 39.36 38.94 40.83 42.93 45.01 46.94
30.24 27.34 21.47 19.33 17.14 12.30 27.80 33.90 36.72 34.67 35.42 36.28 36.66 38.13 38.16 38.31 35.73 34.07 34.94 34.93 34.86 35.76 35.74 36.19 36.17 35.77 36.20 37.01 37.92 38.48 37.53 37.42 37.81 37.49 37.79 37.77 37.81 37.37 37.76 36.35 38.13 40.97 43.46 43.84
34.73 28.61 21.79 23.81 13.24 21.62 27.69 30.15 31.46 31.26 27.06 30.11 32.78 31.17 31.96 35.68 34.43 30.35 32.89 33.53 33.37 33.53 34.08 34.49 33.92 33.90 33.13 34.86 36.03 34.47 33.67 34.43 34.61 35.08 35.66 36.19 36.61 36.26 36.36 36.30 36.71 37.76 40.43 41.86
34.93 35.32 24.89 15.40 11.76 10.32 24.99 31.75 34.88 35.19 24.18 27.23 27.96 26.34 26.60 32.44 29.25 29.98 30.00 30.17 30.15 30.42 31.24 30.14 30.55 30.37 31.64 33.07 31.97 30.63 30.74 31.18 31.87 33.25 33.84 34.68 35.28 35.17 35.29 35.86 36.33 37.05 37.80 38.79
28.65 29.19 22.81 12.69 8.71 18.69 29.60 33.09 35.04 20.64 22.81 24.40 24.47 22.49 23.11 24.43 24.48 26.35 27.78 26.74 27.74 27.83 27.27 27.78 26.87 27.31 29.89 28.38 28.27 27.83 28.48 27.89 30.53 32.03 31.41 30.63 32.79 34.09 34.75 35.15 35.22 35.28 36.20 36.75
24.00 22.81 21.77 20.01 20.31 17.42 23.69 28.92 27.52 22.17 21.88 20.41 20.33 19.22 18.71 20.20 21.98 22.43 22.42 22.46 23.16 22.96 23.43 24.32 24.28 24.78 24.63 25.92 25.33 24.47 25.33 27.43 29.13 25.17 24.79 26.78 30.44 32.95 33.78 33.95 34.24 35.16 35.04 35.16
21.29 26.35 21.76 24.22 22.06 20.26 19.32 17.71 19.57 21.48 17.78 16.78 16.05 16.81 16.95 17.16 16.73 17.42 17.35 18.27 19.64 20.14 20.97 22.45 20.41 20.02 22.12 22.19 22.50 23.38 23.87 23.89 21.02 20.22 21.05 25.68 29.73 31.48 33.08 33.62 33.63 33.65 34.96 34.84
26.17 29.13 26.41 25.03 20.73 17.25 17.45 16.77 17.36 16.68 14.82 14.87 15.14 14.76 14.86 13.55 14.24 13.62 14.49 16.12 16.85 17.78 17.27 17.92 17.04 16.44 16.30 19.16 21.04 20.09 19.78 18.13 16.07 16.12 21.25 25.01 25.11 28.16 31.42 33.19 34.01 33.74 34.05 35.20
20.31 24.59 24.42 15.33 16.94 16.71 15.37 14.09 13.47 14.15 14.19 12.77 13.06 12.82 12.40 11.82 11.76 12.25 12.79 12.89 13.34 13.64 13.89 13.86 13.66 13.96 14.10 15.48 15.41 15.22 14.64 14.19 14.05 14.62 15.15 18.74 23.77 26.54 28.07 30.45 33.19 33.76 35.00 35.44
12.09 15.22 21.49 20.39 13.61 14.53 14.90 13.46 11.82 11.27 9.98 10.24 9.62 9.25 10.75 11.18 10.66 10.35 9.67 10.31 10.44 10.06 11.30 10.56 10.30 10.24 10.21 11.43 11.01 10.67 11.17 10.45 9.08 10.41 13.17 13.08 14.63 17.61 22.04 26.80 30.64 35.41 36.09 36.53
MSLP
1019.05 1019.41 1018.54 1018.54 1019.05 1019.68 1019.70 1019.92 1019.99 1019.84 1019.86 1019.43 1018.60 1018.05 1017.08 1016.12 1015.50 1015.30 1015.08 1014.56 1014.08 1013.77 1013.12 1013.12 1013.06 1013.32 1013.67 1014.00 1014.53 1014.87 1015.33 1015.70 1016.31 1016.80 1017.08 1017.39 1017.42 1017.67 1017.79 1017.75 1018.01 1018.33 1018.73 1019.06
1019.01 1017.83 1017.68 1018.80 1019.20 1019.55 1020.27 1020.23 1020.23 1020.37 1020.32 1020.23 1019.49 1018.21 1017.24 1016.24 1015.35 1014.90 1014.64 1014.04 1013.79 1013.47 1012.84 1012.52 1012.65 1012.89 1012.93 1012.89 1013.10 1013.74 1014.32 1014.67 1014.91 1015.49 1015.84 1016.34 1016.80 1016.93 1016.85 1017.17 1017.12 1017.39 1017.88 1018.28
1017.68 1016.93 1018.08 1018.47 1018.95 1019.60 1019.83 1020.04 1020.57 1020.89 1020.82 1020.59 1020.44 1018.55 1017.17 1015.34 1014.38 1014.05 1013.36 1013.08 1012.80 1012.84 1012.64 1012.16 1011.89 1011.80 1012.03 1012.19 1012.31 1012.59 1013.00 1013.61 1014.20 1014.56 1015.27 1015.85 1016.33 1016.61 1016.83 1016.56 1016.49 1016.41 1016.78 1017.35
1017.48 1016.79 1017.34 1017.78 1018.18 1019.10 1019.60 1019.72 1020.50 1020.94 1021.20 1021.23 1020.67 1019.04 1015.99 1015.03 1013.88 1013.31 1012.29 1011.96 1011.54 1011.51 1011.58 1011.24 1011.24 1011.48 1011.70 1011.69 1011.41 1011.63 1011.92 1012.49 1013.01 1013.77 1014.41 1014.73 1014.80 1015.13 1015.07 1015.42 1015.78 1015.93 1016.04 1016.24
1016.19 1016.34 1016.54 1017.12 1016.44 1018.21 1018.37 1018.98 1019.90 1020.62 1020.99 1021.02 1020.72 1020.12 1014.86 1014.53 1013.71 1011.88 1011.26 1010.94 1010.74 1010.63 1010.67 1010.81 1010.93 1010.75 1010.75 1010.83 1011.10 1011.14 1011.25 1011.63 1012.07 1012.73 1013.17 1013.86 1013.99 1013.84 1014.05 1014.38 1014.77 1015.10 1015.21 1015.30
1017.01 1016.71 1016.19 1015.53 1016.61 1017.41 1018.16 1019.04 1019.82 1020.43 1020.86 1020.30 1019.11 1019.32 1013.62 1013.59 1011.60 1010.93 1010.89 1010.71 1010.89 1011.09 1011.12 1011.31 1011.37 1011.21 1011.00 1010.87 1011.05 1011.31 1011.35 1011.23 1011.39 1011.83 1012.15 1012.35 1012.65 1012.99 1013.35 1013.52 1013.71 1013.93 1014.41 1014.62
1017.16 1016.83 1015.75 1015.53 1016.48 1017.17 1017.65 1018.40 1019.28 1019.82 1019.66 1018.82 1017.81 1018.41 1013.36 1012.48 1011.15 1010.95 1011.25 1011.34 1011.48 1011.42 1011.34 1011.43 1011.69 1011.61 1011.34 1011.52 1011.43 1011.33 1011.45 1011.47 1011.33 1011.26 1011.42 1011.67 1011.78 1012.24 1012.43 1012.60 1012.86 1013.19 1013.39 1013.60
1016.45 1016.08 1015.76 1014.90 1014.77 1015.38 1016.40 1017.42 1017.40 1018.30 1018.90 1018.29 1017.89 1016.77 1013.06 1011.65 1010.61 1010.68 1010.54 1011.21 1011.60 1011.78 1011.64 1011.93 1011.95 1011.86 1011.63 1011.66 1011.50 1011.62 1011.57 1011.24 1011.06 1011.16 1010.96 1010.88 1011.07 1011.29 1011.50 1011.70 1011.92 1012.26 1012.35 1012.38
1016.51 1016.12 1015.28 1014.73 1014.78 1014.74 1015.81 1016.45 1016.80 1017.73 1018.99 1018.70 1017.09 1014.86 1012.81 1011.23 1011.44 1011.09 1011.21 1011.75 1012.33 1012.64 1012.61 1012.59 1012.36 1012.06 1011.96 1012.06 1011.92 1011.85 1011.74 1011.45 1011.09 1010.88 1010.60 1010.46 1010.45 1010.53 1010.65 1010.81 1011.07 1011.30 1011.40 1011.45
1016.18 1016.26 1015.45 1014.61 1015.27 1014.92 1014.87 1015.58 1017.01 1017.81 1018.38 1018.16 1016.28 1014.50 1012.50 1011.48 1011.36 1011.47 1011.65 1012.06 1012.56 1012.99 1012.99 1013.18 1012.89 1012.41 1012.37 1012.18 1012.04 1011.84 1011.74 1011.44 1011.12 1010.85 1010.53 1010.20 1009.96 1009.82 1009.76 1009.86 1010.02 1010.16 1010.31 1010.54
1016.18 1016.65 1016.66 1016.25 1015.64 1015.70 1015.31 1015.30 1015.92 1016.48 1017.33 1016.86 1016.02 1013.92 1011.84 1011.23 1011.51 1011.38 1011.47 1011.87 1012.02 1012.61 1013.06 1013.27 1012.93 1012.63 1012.20 1011.95 1011.89 1011.91 1011.73 1011.44 1011.02 1010.71 1010.42 1010.14 1009.72 1009.44 1009.22 1009.04 1008.95 1008.94 1009.11 1009.38
1015.26 1016.07 1016.14 1016.07 1015.99 1016.15 1016.24 1015.45 1015.70 1015.17 1016.24 1016.30 1014.90 1014.10 1012.05 1011.51 1011.45 1011.42 1012.07 1012.29 1012.52 1012.83 1013.09 1013.14 1012.94 1012.75 1012.34 1011.91 1011.68 1011.82 1011.72 1011.54 1010.96 1010.51 1010.22 1009.88 1009.48 1009.16 1009.04 1008.71 1008.32 1008.21 1008.19 1008.42
1014.34 1015.37 1016.17 1016.24 1016.35 1016.50 1016.34 1015.90 1016.72 1015.32 1015.48 1015.72 1014.68 1013.39 1012.02 1011.99 1012.15 1012.33 1012.63 1013.13 1013.13 1013.03 1012.99 1013.04 1012.96 1012.76 1012.49 1012.17 1012.17 1012.07 1011.97 1011.65 1011.14 1010.53 1010.14 1009.68 1009.31 1009.05 1008.68 1008.34 1008.00 1007.76 1007.65 1007.56
1013.34 1014.52 1014.58 1014.55 1014.72 1015.24 1015.85 1015.87 1016.31 1015.74 1015.19 1015.44 1014.12 1012.86 1012.50 1012.37 1012.61 1012.89 1013.04 1013.19 1013.10 1013.28 1013.38 1013.39 1013.49 1013.51 1013.33 1013.30 1012.96 1012.45 1012.26 1011.96 1011.46 1010.85 1010.22 1009.79 1009.23 1008.91 1008.51 1008.09 1007.70 1007.34 1007.05 1006.91
1013.45 1014.45 1015.07 1014.88 1014.89 1015.22 1015.18 1015.91 1015.66 1015.86 1015.46 1015.13 1014.48 1014.11 1012.98 1011.96 1012.58 1013.05 1013.04 1013.08 1013.26 1013.50 1013.84 1014.23 1014.44 1014.39 1014.42 1014.16 1013.89 1013.34 1012.91 1012.49 1012.07 1011.33 1010.67 1010.00 1009.48 1008.94 1008.42 1008.09 1007.56 1007.16 1006.88 1006.44
1013.93 1015.13 1015.62 1016.14 1015.81 1015.58 1015.07 1014.91 1014.36 1014.00 1014.25 1014.08 1013.74 1012.45 1012.37 1012.82 1013.01 1013.18 1013.60 1013.99 1014.69 1015.13 1015.41 1015.58 1015.58 1015.43 1015.32 1015.21 1014.74 1014.23 1013.71 1013.29 1012.68 1011.84 1011.13 1010.36 1009.72 1009.33 1008.77 1008.16 1007.55 1007.18 1006.77 1006.29
1014.23 1015.42 1016.75 1017.71 1016.82 1016.17 1015.66 1013.51 1013.53 1013.40 1013.31 1013.18 1013.42 1012.02 1013.00 1013.61 1014.18 1015.52 1016.09 1016.36 1016.75 1016.91 1016.90 1016.89 1016.96 1016.75 1016.24 1015.75 1015.42 1014.95 1014.57 1013.93 1012.99 1012.20 1011.49 1010.83 1010.12 1009.73 1009.09 1008.47 1008.04 1007.34 1006.66 1006.25
1014.58 1016.01 1017.37 1018.66 1018.30 1017.42 1013.86 1013.22 1012.85 1013.26 1013.86 1014.22 1014.09 1013.56 1014.47 1014.73 1015.94 1017.15 1017.81 1017.99 1018.27 1018.21 1018.07 1017.98 1017.61 1017.26 1017.09 1016.57 1016.09 1015.77 1015.24 1014.47 1013.52 1012.61 1011.82 1011.07 1010.29 1009.64 1009.03 1008.49 1007.95 1007.19 1006.62 1006.08
1014.63 1016.15 1018.34 1019.37 1019.63 1017.60 1014.54 1013.66 1013.69 1014.24 1016.35 1016.87 1016.22 1016.49 1016.69 1016.05 1016.56 1018.44 1019.24 1019.53 1019.54 1019.57 1019.47 1019.34 1019.20 1018.67 1017.90 1017.21 1016.68 1016.23 1015.56 1014.70 1013.70 1012.87 1012.26 1011.70 1010.85 1009.91 1009.24 1008.42 1007.64 1006.80 1006.22 1005.76
1015.65 1016.08 1017.99 1019.58 1019.97 1018.55 1016.32 1014.42 1013.88 1014.30 1017.45 1018.75 1018.95 1019.24 1019.16 1018.18 1018.79 1019.73 1020.43 1020.72 1020.67 1020.57 1020.37 1020.21 1019.89 1019.52 1018.66 1017.81 1017.26 1016.63 1015.80 1014.83 1013.89 1013.21 1012.51 1011.72 1010.98 1010.09 1009.24 1008.28 1007.26 1006.46 1005.81 1005.27
1016.92 1017.57 1018.47 1019.63 1019.91 1018.90 1016.86 1015.67 1015.44 1017.50 1020.70 1021.22 1021.54 1021.90 1021.84 1021.79 1022.60 1022.21 1021.55 1021.51 1021.66 1021.48 1021.06 1020.75 1020.44 1019.71 1018.97 1018.58 1017.87 1016.91 1016.09 1015.36 1014.56 1013.76 1012.93 1012.01 1010.98 1009.91 1009.08 1007.85 1006.88 1005.98 1005.34 1004.82
1016.47 1017.45 1018.41 1019.58 1020.69 1020.27 1018.76 1018.04 1019.15 1021.72 1022.66 1023.39 1023.80 1024.14 1024.17 1024.17 1023.98 1023.96 1023.72 1023.07 1022.27 1021.54 1021.09 1021.01 1020.41 1019.93 1019.79 1019.27 1018.50 1017.48 1016.63 1015.69 1014.72 1014.31 1013.04 1011.72 1010.65 1009.58 1008.50 1007.48 1006.34 1005.59 1005.04 1004.41
1016.29 1015.96 1017.25 1018.79 1020.42 1021.52 1021.91 1022.28 1023.39 1023.62 1024.53 1025.33 1025.71 1025.77 1025.57 1025.11 1025.03 1025.18 1024.89 1024.37 1023.62 1023.01 1022.34 1021.93 1021.63 1020.67 1020.26 1019.94 1019.45 1017.98 1016.93 1016.26 1015.38 1014.32 1013.08 1011.82 1010.36 1009.24 1008.14 1006.98 1005.94 1005.32 1004.67 1003.94
1016.51 1016.09 1017.20 1019.08 1022.03 1023.14 1023.80 1024.71 1025.32 1025.94 1026.51 1027.04 1027.20 1027.08 1026.84 1026.37 1025.89 1025.42 1025.10 1024.77 1024.59 1024.40 1023.90 1023.34 1022.55 1021.37 1020.30 1020.27 1019.72 1019.16 1018.08 1017.30 1016.16 1014.63 1013.02 1011.58 1010.45 1008.96 1007.62 1006.43 1005.50 1004.76 1004.04 1003.37
1018.59 1018.27 1019.12 1022.11 1023.62 1024.38 1025.10 1025.84 1026.66 1027.11 1027.52 1027.77 1027.88 1027.81 1027.58 1027.27 1026.67 1026.20 1025.73 1025.44 1025.19 1024.87 1024.36 1023.97 1023.22 1022.27 1021.09 1020.27 1019.77 1019.37 1018.53 1017.58 1016.11 1014.68 1013.41 1011.92 1010.39 1008.85 1007.34 1006.19 1004.81 1003.80 1002.90 1002.65
1020.79 1020.96 1021.46 1022.46 1023.57 1024.51 1025.68 1026.89 1027.73 1027.93 1028.31 1028.58 1028.64 1028.47 1028.42 1028.18 1027.75 1027.46 1027.13 1026.87 1026.22 1025.60 1025.14 1024.37 1023.96 1023.09 1022.19 1021.28 1020.36 1019.56 1018.87 1018.07 1016.87 1015.04 1013.38 1012.17 1010.75 1009.03 1007.36 1005.54 1003.37 1002.43 1001.58 1001.27
Wind_Speed
6 6 16 15 13 4 5 3 3 1 4 10 6 8 9 8 8 9 9 9 9 10 9 8 13 13 15 14 15 16 14 13 11 9 10 8 11 8 7 9 11 12 10 12
6 19 17 4 9 9 5 5 5 6 3 2 8 20 16 13 11 9 8 9 9 9 9 10 8 10 15 19 19 16 16 16 15 12 11 10 8 8 9 7 11 13 12 13
16 13 11 14 10 14 12 18 13 8 3 2 8 20 17 13 12 14 17 18 14 12 13 10 11 13 14 16 18 17 18 17 15 16 8 7 3 2 5 8 9 11 14 14
15 16 14 12 15 14 17 15 11 9 5 5 4 10 8 6 14 14 15 18 20 19 18 15 9 7 9 15 16 17 16 15 16 16 13 15 13 13 13 12 10 10 12 14
11 14 16 16 23 18 11 12 14 7 6 1 7 4 8 7 7 18 11 12 13 15 16 13 10 9 7 10 11 14 15 14 15 14 17 13 15 12 10 10 12 13 12 15
12 8 17 18 10 22 6 9 7 4 6 8 12 9 9 8 10 4 4 7 6 8 8 7 5 5 6 6 2 5 7 12 13 13 18 20 19 16 12 11 12 11 10 11
14 17 3 10 10 16 7 10 6 6 7 6 8 10 18 9 7 4 6 8 8 8 8 8 9 8 7 6 4 3 6 8 8 13 15 17 19 17 17 15 12 12 11 10
7 8 14 10 11 12 18 12 6 6 5 6 9 10 9 12 11 7 7 8 9 9 8 8 7 6 7 8 8 6 5 8 7 8 12 14 15 12 12 14 12 11 12 12
6 5 4 3 6 14 14 14 5 5 2 2 6 8 10 10 5 5 9 9 7 8 7 5 4 3 4 5 7 6 8 8 8 8 8 9 11 13 13 16 13 11 13 12
5 3 3 11 1 2 9 11 6 3 7 6 5 5 6 4 7 8 10 10 6 6 6 3 4 4 4 5 7 7 6 6 7 8 7 7 8 11 13 13 15 14 14 14
10 4 1 5 6 15 6 11 8 6 4 8 3 6 5 9 10 11 9 9 9 7 4 4 3 5 4 3 4 7 7 7 7 6 6 7 7 8 9 13 14 15 14 15
10 4 5 5 7 4 9 6 7 10 9 4 3 5 5 9 10 7 7 7 5 4 1 5 5 6 6 7 7 6 7 7 7 7 7 7 7 7 7 10 13 13 14 12
12 6 3 2 3 8 5 3 6 3 3 4 5 6 1 9 7 7 9 5 5 5 3 4 6 6 7 8 7 8 8 8 8 7 7 7 7 7 9 9 9 8 11 12
11 5 5 10 5 5 4 11 16 6 2 5 5 3 5 3 7 5 5 4 5 2 3 3 5 8 8 8 8 10 11 9 9 9 8 8 8 8 9 10 10 11 11 11
7 7 3 3 8 5 6 5 9 9 8 2 8 11 16 14 6 4 4 1 4 7 10 11 11 10 11 13 12 12 12 11 12 13 10 10 9 9 9 10 10 9 8 12
6 4 5 2 4 1 3 6 9 16 14 14 13 18 7 3 4 8 9 10 10 13 13 13 13 13 13 13 14 14 14 14 14 14 14 13 11 11 10 10 11 8 8 10
7 5 4 4 1 5 3 17 12 4 5 12 10 14 6 5 6 11 10 11 12 11 12 12 12 12 13 14 14 14 15 15 14 14 14 11 11 12 13 9 10 13 12 9
6 6 4 3 4 1 10 3 13 15 5 6 8 13 7 1 14 13 11 11 10 11 12 13 13 14 14 14 13 14 14 14 13 13 13 14 14 13 14 10 10 12 11 13
4 5 3 5 3 6 10 2 6 6 2 11 5 12 11 7 10 9 12 11 10 10 10 10 11 14 17 15 15 16 15 14 14 14 13 15 16 17 15 15 14 11 9 12
5 5 6 2 6 9 6 5 4 5 2 10 10 12 13 11 3 1 12 11 10 11 10 12 13 14 13 15 18 17 15 15 16 16 17 16 16 16 17 16 15 12 8 11
4 3 6 4 3 7 7 8 4 7 3 6 9 10 10 5 4 11 16 16 13 12 15 15 14 14 14 17 16 18 16 16 16 17 18 19 18 17 16 16 14 12 11 10
7 7 4 3 2 7 9 4 3 2 9 9 8 9 9 8 8 10 12 14 15 17 18 16 16 15 15 15 15 19 17 17 17 20 21 20 18 15 13 15 15 14 12 11
2 7 8 6 4 6 14 17 9 10 8 6 9 10 12 13 12 13 13 13 14 16 15 15 16 19 14 15 15 18 19 18 22 21 21 20 21 19 16 17 16 13 12 10
1 1 4 7 4 8 10 11 10 9 8 6 8 9 11 12 15 15 14 13 13 13 15 15 17 19 20 15 15 17 18 20 20 21 20 18 19 19 18 14 12 12 11 11
1 2 5 7 6 8 8 10 8 7 8 9 10 10 12 14 14 15 15 16 15 16 15 15 16 17 20 20 18 17 18 18 19 19 18 17 14 16 17 15 14 12 14 12
2 3 4 4 8 2 6 7 8 8 10 11 12 13 13 13 15 17 14 15 14 16 16 15 16 17 18 18 18 18 16 16 17 18 15 14 14 14 13 14 15 19 23 25
Wind_Direction
185 186 217 204 200 212 128 129 196 267 324 338 345 298 285 276 273 281 271 252 241 246 251 216 213 197 195 191 193 203 201 197 191 196 203 210 213 207 208 206 203 197 199 201
185 222 221 111 185 182 207 186 233 303 267 0 329 308 301 282 271 248 257 272 253 262 253 254 211 196 196 195 199 198 205 201 194 195 206 212 211 218 214 208 202 200 198 200
209 230 163 186 196 207 215 224 218 240 12 193 290 278 257 260 251 260 250 249 246 236 240 236 233 208 209 204 202 199 200 201 199 202 196 201 201 206 205 219 212 205 199 199
219 221 180 186 196 182 222 215 210 199 159 231 157 291 240 247 259 256 261 247 246 247 240 238 232 236 209 221 207 204 199 193 199 193 196 201 206 213 220 224 223 216 204 205
202 192 199 197 203 178 225 156 188 167 178 251 204 248 278 233 256 253 248 239 244 239 236 232 225 236 235 213 203 210 206 200 200 195 201 203 214 219 217 217 215 216 216 211
274 310 194 204 181 178 143 136 164 167 214 217 218 193 264 204 222 298 303 78 90 82 66 73 56 34 32 16 209 236 224 213 207 199 205 207 212 217 217 214 214 213 216 216
215 245 290 159 151 182 203 153 180 205 205 228 177 178 252 285 264 193 166 111 101 94 74 59 37 22 20 22 16 321 224 237 225 214 215 218 221 218 221 217 217 215 219 217
203 192 197 177 195 188 193 201 160 197 198 235 132 223 253 238 260 156 124 126 111 83 66 50 38 23 9 358 353 345 297 260 235 222 226 226 224 225 224 223 222 220 222 221
185 233 279 240 194 156 180 209 215 103 50 60 209 271 302 269 173 119 105 88 91 87 71 68 28 12 334 325 320 327 329 311 291 256 236 226 227 227 228 230 226 226 225 227
172 310 339 208 356 269 190 155 190 182 183 219 259 253 226 93 98 111 110 114 123 104 71 337 302 305 327 310 296 304 296 289 287 288 271 254 236 230 230 229 227 225 226 223
154 190 118 61 213 223 207 195 205 165 164 203 173 259 247 188 145 127 131 134 144 131 165 270 296 310 326 306 301 291 292 297 301 300 288 280 263 245 231 229 227 224 226 224
179 173 201 189 199 268 335 200 241 191 184 236 157 228 112 131 144 130 100 113 128 138 181 289 315 333 339 345 346 333 306 298 287 283 287 282 279 272 253 245 241 232 227 223
157 186 146 213 142 173 191 290 336 166 64 196 139 233 335 100 107 103 109 125 163 180 210 313 344 342 345 351 350 341 331 314 301 298 287 285 281 280 275 262 248 232 230 231
148 171 199 224 153 134 174 202 200 281 65 164 228 4 286 130 98 97 124 183 203 235 276 300 360 2 10 353 350 350 338 329 321 313 299 289 285 282 280 277 266 254 243 237
161 200 187 132 133 143 145 158 194 196 195 182 212 210 242 290 84 134 184 18 35 4 10 29 37 24 8 1 353 349 342 340 342 338 318 297 293 291 289 285 277 269 257 249
169 222 159 277 127 185 155 217 199 203 227 233 251 264 170 102 20 12 354 9 39 45 33 24 18 14 4 353 347 343 345 347 339 334 327 319 315 304 293 287 286 282 272 263
142 126 92 238 270 139 349 222 219 220 202 215 220 254 79 48 57 51 55 42 42 27 19 14 8 356 348 346 341 342 336 332 331 331 328 323 318 313 307 293 298 288 279 276
120 100 80 141 34 359 240 301 205 215 244 337 313 297 47 293 95 78 43 44 25 14 9 357 352 343 342 334 336 334 332 326 324 322 326 330 330 322 314 298 280 280 277 272
89 112 97 143 179 295 300 263 145 154 123 6 352 26 6 347 112 78 35 27 12 5 348 354 338 334 324 327 335 333 327 326 326 327 327 326 324 320 316 306 295 277 272 274
48 62 116 114 156 205 252 292 236 128 217 15 34 31 10 339 98 75 4 0 355 346 345 335 333 324 322 334 334 328 326 329 326 327 323 321 314 309 308 304 298 285 261 266
121 128 167 190 181 283 250 278 323 109 202 40 43 30 20 41 21 322 342 338 337 334 335 334 330 325 331 332 326 322 323 323 318 317 320 315 308 303 301 300 298 286 271 268
159 148 182 129 137 257 15 331 167 68 67 52 36 17 355 333 322 327 321 321 327 330 333 334 326 327 326 324 328 316 315 317 325 322 312 310 306 303 301 300 302 292 276 266
172 177 173 162 182 73 42 83 64 52 74 34 14 352 345 334 333 330 326 323 325 325 324 330 325 314 320 327 317 313 318 330 320 314 309 305 305 306 302 300 297 294 280 265
148 115 111 128 83 117 92 71 73 62 64 30 10 350 342 331 331 329 328 330 329 330 323 323 320 316 313 318 321 312 320 316 311 305 303 309 309 301 300 295 289 282 275 268
181 353 129 87 116 123 95 60 55 47 32 17 1 353 346 339 333 329 333 332 329 325 325 322 317 314 313 320 318 320 314 313 310 310 306 300 300 305 303 291 285 271 264 258
357 145 165 174 134 88 106 75 38 28 19 12 357 349 345 341 336 337 329 329 325 325 322 323 320 315 313 312 314 311 313 315 308 304 307 303 300 297 292 288 286 265 259 257